Regional Weather Roundup
Issued by NWS Austin/San Antonio, TX

Current Version | Previous Version | Text Only | Print | Product List | Glossary On
Versions: 1 2 3 4 5 6 7 8 9 10 11 12 13 14 15 16 17 18 19 20 21 22 23 24 25 26 27 28 29 30 31 32 33 34 35 36 37 38 39 40 41 42 43 44 45 46 47 48 49 50
000
ASUS44 KEWX 180801
RWREWX
SOUTH TEXAS REGIONAL WEATHER ROUNDUP
NATIONAL WEATHER SERVICE AUSTIN/SAN ANTONIO TX
300 AM CDT FRI JUN 18 2021

NOTE: "FAIR" INDICATED FEW OR NO CLOUDS BELOW 12,000 FEET WITH NO
SIGNIFICANT WEATHER AND/OR OBSTRUCTIONS TO VISIBILITY.

* - THESE STATIONS ARE NOT NWS OR FAA STATIONS...AND ARE NOT SUBJECT
    TO NWS AND FAA QUALITY CONTROL.

TXZ171-172-183>190-180900-
TEXAS HILL COUNTRY AND EDWARDS PLATEAU

CITY           SKY/WX    TMP DP  RH WIND       PRES   REMARKS
JUNCTION       CLEAR     71  63  75 W6        30.02S
*LLANO         PTCLDY    72  66  83 CALM      29.98S
BURNET         CLEAR     78  68  71 CALM      30.01S
*HORSESHOE BAY CLEAR     76  67  73 CALM      29.99S
*LAGO VISTA    CLEAR     76  66  71 CALM      29.99F
*KERRVILLE     CLEAR     69  65  88 CALM      30.01S
*FREDERICKSBRG CLEAR     69  64  82 CALM      30.01S
*ROCKSPRINGS     N/A     72  61  68 MISG      30.08S
*BOERNE        CLEAR     70  66  88 CALM      30.00S
*CASTROVILLE   CLEAR     75  69  79 CALM      29.98F
HONDO          CLEAR     71  68  90 N5        29.96F
*UVALDE        CLEAR     71  69  95 CALM      29.98F
DEL RIO        CLEAR     81  63  54 SE7       29.95F
*LAUGHLIN AFB  CLEAR     77  63  61 SE6       29.95F
*SPOFFORD      NOT AVBL
*EAGLE PASS    CLEAR     75  64  69 S5        29.94F
CARRIZO SPRGS  PTCLDY    75  66  73 CALM      29.93F
$$

TXZ173-191>194-202-209-217>225-228-180900-
CENTRAL AND SOUTH CENTRAL TEXAS

CITY           SKY/WX    TMP DP  RH WIND       PRES   REMARKS
GEORGETOWN     CLEAR     79  71  76 S3        29.98F
*TAYLOR        CLEAR     75  74  96 SE3       29.96S
AUSTIN/BERGSTM PTCLDY    74  71  91 CALM      29.95S
AUSTIN/MABRY   CLEAR     81  69  67 CALM      29.96F
*PFLUGERVILLE  CLEAR     77  72  83 CALM      29.95F
SAN MARCOS     PTCLDY    77  74  90 S3        29.97S
NEW BRAUNFELS  MOCLDY    75  71  87 CALM      29.95S
*RANDOLPH AFB  MOCLDY    76  71  84 S3        29.94F
*SEGUIN        NOT AVBL
SAN ANTONIO    PTCLDY    79  70  74 S5        29.97S
STINSON FIELD  CLEAR     79  73  82 CALM      29.94F
*KELLY FIELD   CLEAR     74  70  89 CALM      29.94F
*PLEASANTON    CLEAR     75  72  90 CALM      29.95S
*KENEDY        PTCLDY    76  74  91 CALM      29.95S
*LA GRANGE     MOCLDY    77  77  98 CALM      29.93F
*GIDDINGS      CLEAR     76  70  82 CALM      29.96F
*GONZALES      MOCLDY    78  73  84 CALM      29.95F
$$

TXZ163>164-176>182-195>201-210>213-226-227-235-180900-
SOUTHEAST TEXAS

CITY           SKY/WX    TMP DP  RH WIND       PRES   REMARKS
COLLEGE STN    CLEAR     76  71  85 SE3       29.95F
*BRYAN         CLEAR     73  73  98 SE5       29.97S
*CALDWELL      CLEAR     75  71  86 CALM      29.96S
*CROCKETT      CLEAR     73  70  88 E3        29.97S
*BRENHAM       CLEAR     75  71  86 CALM      29.96S
HUNTSVILLE     PTCLDY    74  69  85 CALM      29.96F
CONROE         CLEAR     69  68  96 NW3       29.96S
HOUSTON BUSH   CLEAR     73  66  78 CALM      29.93F
HOUSTON HOBBY  CLEAR     80  66  62 CALM      29.92F
*HOUSTON SW AP CLEAR     71  69  94 CALM      29.94R
PEARLAND       CLEAR     75  68  78 CALM      29.93F
HOUSTON HOOKS  CLEAR     72  69  90 CALM      29.94F
ELLINGTON FLD  NOT AVBL
SUGAR LAND     CLEAR     73  69  87 N3        29.92F
*HOUSTON EXEC  NOT AVBL
*CLEVELAND MUN CLEAR     69  69 100 CALM      29.96S FOG
*WHARTON         N/A     71  67  85 CALM      29.94S
*COLUMBUS      FAIR      73  70  92 CALM      29.95F
*EAGLE LAKE    NOT AVBL
$$

TXZ214>216-236>238-180900-
THE UPPER TEXAS COAST

CITY           SKY/WX    TMP DP  RH WIND       PRES   REMARKS
*ORANGE        CLEAR     69  67  92 CALM      29.95S
PORT ARTHUR    CLEAR     75  68  78 NE5       29.92F
GALVESTON      CLEAR     83  66  56 E6        29.92S
ANGLETON       CLEAR     70  66  87 CALM      29.92S
*BAY CITY      CLEAR     71  67  90 N3        29.92S
PALACIOS       CLEAR     72  69  90 N5        29.91F
$$

TXZ229>234-239>247-180900-
TEXAS COASTAL BEND AND RIO GRANDE PLAINS

CITY           SKY/WX    TMP DP  RH WIND       PRES   REMARKS
VICTORIA       MOCLDY    76  71  85 NE6       29.93F
*BEEVILLE      MOCLDY    76  76 100 CALM      29.92F
ROCKPORT       MOCLDY    83  70  64 E7        29.90F
*PORT ARANSAS  MOCLDY    85  67  55 E8        29.91F
*PORT LAVACA   PTCLDY    79  72  78 E5        29.92F
*INGLESIDE     MOCLDY    80  74  81 CALM      29.90F
CORPUS CHRISTI CLOUDY    76  72  87 CALM      29.90F
CORPUS NAS     MOCLDY    83  73  72 SE8       29.89F
*ROBSTOWN      MOCLDY    79  72  80 CALM      29.91F
ALICE          NOT AVBL
KINGSVILLE NAS PTCLDY    75  72  90 N5        29.90F
COTULLA        PTCLDY    79  70  74 SE5       29.93F
LAREDO         NOT AVBL
$$

TXZ248>255-180900-
DEEP SOUTH TEXAS

CITY           SKY/WX    TMP DP  RH WIND       PRES   REMARKS
BROWNSVILLE    NOT AVBL
PORT ISABEL    PTCLDY    78  73  84 NW5       29.89F
HARLINGEN      NOT AVBL
*HEBBRONVILLE  PTCLDY    72  62  71 CALM      29.94F
MCALLEN        NOT AVBL
*WESLACO       MOCLDY    75  72  91 CALM      29.89F
FALFURRIAS     PTCLDY    71  69  93 CALM      29.91F
EDINBURG       PTCLDY    75  73  94 CALM      29.90F
*ZAPATA        PTCLDY    74  67  77 CALM      29.94S
$$

TXZ213>215-236>238-242>244-246-247-251-254-255-180900-
CMAN STATIONS

STATION/POSITION TIME  TEMP    WIND        PRES    WAVE
                       AIR SEA DIR/SP/G            HT/PER
                 (UTC) (F)     (DEG/KT/KT) (MB)    (FT/S)
NORTH JETTY/GLS  0724   84 85  100/ 12/ 15 1011.8
EAGLE POINT      0724   85 86  110/  9/ 10 1012.6
MORGANS POINT    0724   81 85   70/  5/  5 1013.3
MISSION/ARANSAS  0700   85      70/  8     1014.0
PORT O`CONNOR    0724   83 89   90/ 11/ 12 1012.5
PORT ARANSAS     0700   85 85  100/ 15/ 16   N/A
MALAQUITE BEACH  0724   84      90/  9/ 10   N/A
BAFFIN BAY       0724   83 87   80/  6/  8 1012.1
PORT ISABEL      0724   83 84   40/  4/  5 1013.2
$$



USA.gov is the U.S. government's official web portal to all federal, state and local government web resources and services.